[ hide orbit diagram ]
For accurate long-term ephemerides, please instead use our Horizons system.This orbit viewer was implemented using two-body methods, and hence should not be used for determining accurate long-term trajectories (over several years or decades) or planetary encounter circumstances.
Orbital Elements at Epoch 2459200.5 (2020-Dec-17.0) TDB
Reference: JPL 14 (heliocentric ecliptic J2000)
Element | Value | Uncertainty (1-sigma) | Units |
e | .05680656448820116 | 5.5163e-08 | |
a | 2.749098325050087 | 2.399e-08 | au |
q | 2.592931493763724 | 1.578e-07 | au |
i | 3.796333803527572 | 6.5543e-06 | deg |
node | 5.356337840237673 | 6.2826e-05 | deg |
peri | 22.92925798154712 | 7.7198e-05 | deg |
M | 223.1601979785829 | 4.5902e-05 | deg |
tp | 2459833.339783251971 (2022-Sep-10.83978325) | 0.00021469 | TDB |
period | 1664.883452075243 4.56 | 2.1793e-05 5.967e-08 | d yr |
n | .2162313521413571 | 2.8304e-09 | deg/d |
Q | 2.905265156336451 | 2.5353e-08 | au |
|
| | Orbit Determination Parameters
Additional Information
|
[ show covariance matrix ]
Physical Parameter Table
Parameter |
Symbol |
Value |
Units |
Sigma |
Reference |
Notes |
absolute magnitude |
H |
16.82 |
|
n/a |
E2021B55 |
|
|
277771 (2006 DH177) Discovered 2006-Feb-27 by Mt. Lemmon Survey at Mount Lemmon |
Reference: 20110517/Numbers.arc | Last Updated: 2011-05-20 |
|
[ hide close-approach data ]
Close-Approach Data ...sorted by Date/Time (TDB)
|
Date/Time (TDB) |
Time Uncertainty (days_HH:MM) |
Body |
Nominal Distance (au) |
Minimum Distance (au) |
Maximum Distance (au) |
V-relative (km/s) |
V-infinity (km/s) |
JD (TDB) |
Time Uncertainty (minutes) |
Semi-major axis (km) |
Semi-minor axis (km) |
range-LOV angle (deg) |
N-sigma |
BP |
Orbit Ref. |
Reference |
Modified |
2111-Dec-14 13:43 |
00:30 |
Iris |
0.0427768161262419 |
0.0427756965207784 |
0.042777939323104 |
2.77701819776322 |
2.77701814936985 |
2492434.071747784 |
30.1152483258034 |
1514.81460847228 |
51.0077579494295 |
-89.1374498249082 |
125301.837138838 |
T |
14 |
CATAB v2.0f-lin.ifort 2021-Apr-14 04:02:14 |
2021-Apr-14 04:02 |
|
|